Terminal Aerodrome Forecast
Issued by NWS Charleston, WV

Current Version | Previous Version | Graphics & Text | Print | Product List | Glossary On
Versions: 1 2 3 4 5 6 7 8 9 10 11 12 13 14 15 16 17 18 19 20 21
000
FTUS41 KRLX 302330
TAFBKW
TAF
KBKW 302330Z 3100/3124 32008KT P6SM SKC
     FM310300 VRB03KT P6SM FEW040
     FM310700 00000KT 4SM BR FEW005
     FM311200 34006KT P6SM FEW060=

USA.gov is the U.S. government's official web portal to all federal, state and local government web resources and services.